FW7632 Weather Reports


Display with metric or nautical units.
time (UTC)temp
F
wind
direction
speed
MPH
gust
MPH
rain 1hr
in
rain 24hr
in
rain mn
in
humidity
%
barometer
mb
20260510154502 58 9 2.0 4.0 0.00 0.12 0.04 1 1013.3
20260510153059 57 9 1.0 5.0 0.00 0.12 0.04 1 1013.1
20260510151553 56 9 1.0 6.0 0.00 0.14 0.04 1 1013.1
20260510150053 55 360 1.0 6.0 0.00 0.14 0.04 1 1012.9
20260510144557 54 17 5.0 9.0 0.00 0.14 0.04 1 1012.8
20260510143040 54 9 4.0 12.0 0.00 0.14 0.04 1 1012.7
20260510141535 53 9 3.0 10.0 0.00 0.16 0.04 1 1012.6
20260510140030 52 311 5.0 9.0 0.00 0.16 0.04 1 1012.5
20260510134527 52 26 3.0 9.0 0.00 0.16 0.04 1 1012.0
20260510133024 53 325 4.0 11.0 0.00 0.16 0.04 1 1011.7
20260510131517 53 76 1.0 3.0 0.00 0.21 0.04 1 1011.7
20260510130014 53 76 0.0 2.0 0.00 0.21 0.04 1 1011.7
20260510124509 52 76 0.0 2.0 0.00 0.21 0.04 1 1011.5
20260510123006 52 76 0.0 0.0 0.00 0.21 0.04 1 1011.3
20260510121601 52 76 0.0 1.0 0.00 0.27 0.04 1 1011.1
20260510120056 51 76 0.0 1.0 0.00 0.27 0.04 1 1010.8
20260510114609 51 76 0.0 1.0 0.00 0.27 0.04 1 1010.7
20260510113055 51 76 0.0 1.0 0.00 0.27 0.04 1 1010.5
20260510111544 51 76 0.0 1.0 0.00 0.34 0.04 1 1010.2
20260510110049 50 76 0.0 0.0 0.00 0.34 0.04 1 1010.0
20260510104534 50 76 0.0 2.0 0.00 0.34 0.04 1 1009.8
20260510103031 50 76 0.0 1.0 0.00 0.34 0.04 1 1009.3
20260510101525 50 76 0.0 0.0 0.00 0.37 0.04 1 1009.2
20260510100021 50 76 0.0 1.0 0.00 0.37 0.04 1 1009.0
20260510094527 50 76 0.0 1.0 0.00 0.37 0.04 1 1009.0
20260510093013 50 76 1.0 2.0 0.00 0.37 0.04 1 1008.7
20260510091507 50 76 1.0 2.0 0.00 0.37 0.04 1 1008.8
20260510090005 50 76 1.0 2.0 0.00 0.37 0.04 1 1008.4
20260510084613 50 76 0.0 2.0 0.00 0.37 0.04 1 1008.3
20260510083056 50 76 0.0 1.0 0.00 0.37 0.04 1 1008.2
20260510081554 50 76 0.0 3.0 0.00 0.38 0.04 1 1008.3
20260510080058 50 76 1.0 2.0 0.00 0.38 0.04 1 1008.1
20260510074542 51 76 0.0 2.0 0.00 0.38 0.04 1 1008.0
20260510073046 51 76 0.0 3.0 0.00 0.38 0.04 1 1007.9
20260510071533 51 76 2.0 4.0 0.00 0.39 0.04 1 1007.8
20260510070042 52 84 1.0 6.0 0.00 0.39 0.04 1 1007.9
20260510064527 52 351 0.0 2.0 0.00 0.39 0.04 1 1007.9
20260510063024 52 351 1.0 6.0 0.00 0.39 0.04 1 1008.0
20260510061517 52 171 2.0 5.0 0.01 0.41 0.04 1 1007.6
20260510060024 52 167 0.0 6.0 0.01 0.41 0.04 1 1008.2
20260510054511 52 167 1.0 6.0 0.03 0.41 0.04 1 1008.6
20260510053004 53 178 1.0 4.0 0.03 0.40 0.03 1 1008.8
20260510051608 53 217 0.0 4.0 0.03 0.40 0.03 1 1009.3
20260510050108 53 221 0.0 4.0 0.03 0.40 0.03 1 1009.6
20260510044552 53 248 2.0 4.0 0.01 0.38 0.01 1 1009.8
20260510043048 53 286 1.0 4.0 0.00 0.37 0.00 1 1009.6
20260510041543 53 259 1.0 3.0 0.00 0.37 0.37 1 1009.6
20260510040043 53 248 2.0 11.0 0.00 0.37 0.37 1 1009.4
20260510034543 53 246 1.0 6.0 0.00 0.37 0.37 1 1008.4
20260510033053 53 175 0.0 4.0 0.00 0.37 0.37 1 1008.1
20260510031547 53 174 1.0 4.0 0.00 0.37 0.37 1 1008.1
20260510030043 53 174 1.0 4.0 0.00 0.37 0.37 1 1008.2
20260510024540 53 174 0.0 5.0 0.00 0.37 0.37 1 1007.7
20260510023036 53 175 1.0 3.0 0.00 0.37 0.37 1 1007.5
20260510021611 53 209 1.0 6.0 0.00 0.37 0.37 1 1007.5
20260510020027 53 194 0.0 2.0 0.00 0.37 0.37 1 1007.5
20260510014533 54 194 1.0 3.0 0.00 0.37 0.37 1 1007.4
20260510013018 54 194 0.0 4.0 0.00 0.37 0.37 1 1007.2
20260510011517 55 246 1.0 5.0 0.00 0.37 0.37 1 1007.1
20260510010020 55 196 2.0 8.0 0.00 0.37 0.37 1 1006.9
20260510004505 55 219 2.0 6.0 0.00 0.37 0.37 1 1006.9
20260510003002 55 223 1.0 8.0 0.00 0.37 0.37 1 1006.6
20260510001601 56 185 2.0 6.0 0.00 0.37 0.37 1 1006.6
20260510000052 57 205 1.0 4.0 0.00 0.37 0.37 1 1006.6
20260509234548 58 198 0.0 2.0 0.00 0.37 0.37 1 1006.4
20260509233044 58 204 0.0 7.0 0.00 0.37 0.37 1 1006.3
20260509231538 59 232 0.0 5.0 0.00 0.37 0.37 1 1005.9
20260509230039 58 241 3.0 11.0 0.00 0.37 0.37 1 1006.0
20260509224530 58 232 2.0 6.0 0.00 0.37 0.37 1 1006.3
20260509223026 58 235 3.0 9.0 0.00 0.37 0.37 1 1006.3
20260509221521 58 259 3.0 8.0 0.00 0.37 0.37 1 1006.1
20260509220019 58 213 2.0 8.0 0.00 0.37 0.37 1 1006.3
20260509214513 58 216 3.0 8.0 0.00 0.37 0.37 1 1006.4
20260509213010 58 232 5.0 10.0 0.00 0.37 0.37 1 1006.4
20260509211502 57 226 3.0 7.0 0.00 0.37 0.37 1 1006.5
20260509210104 57 221 3.0 9.0 0.00 0.37 0.37 1 1006.8
20260509204553 56 194 3.0 8.0 0.00 0.37 0.37 1 1006.9
20260509203049 56 215 3.0 10.0 0.01 0.37 0.37 1 1006.9
20260509201545 56 234 1.0 7.0 0.01 0.37 0.37 1 1007.0
20260509200047 55 238 3.0 8.0 0.02 0.37 0.37 1 1007.2
20260509194550 55 215 3.0 8.0 0.03 0.37 0.37 1 1007.4
20260509193034 55 221 1.0 9.0 0.04 0.36 0.36 1 1007.5
20260509191526 55 227 2.0 4.0 0.05 0.36 0.36 1 1007.6
20260509190025 54 211 2.0 5.0 0.05 0.35 0.35 1 1007.8
20260509184517 54 226 1.0 6.0 0.04 0.34 0.34 1 1007.8
20260509183016 54 261 1.0 6.0 0.02 0.32 0.32 1 1007.8
20260509181509 55 230 3.0 9.0 0.01 0.31 0.31 1 1007.7
20260509180005 55 226 3.0 7.0 0.00 0.30 0.30 1 1007.7
20260509174601 55 159 2.0 8.0 0.00 0.30 0.30 1 1007.6
20260509173106 54 216 4.0 8.0 0.00 0.30 0.30 1 1007.6
20260509171551 53 207 3.0 6.0 0.00 0.30 0.30 1 1007.6
20260509170047 53 219 2.0 9.0 0.00 0.30 0.30 1 1007.6
20260509164543 53 227 2.0 6.0 0.00 0.30 0.30 1 1007.7
20260509163038 53 199 1.0 7.0 0.00 0.30 0.30 1 1007.8
20260509161541 53 234 1.0 4.0 0.01 0.30 0.30 1 1008.0
20260509160034 53 236 0.0 4.0 0.01 0.30 0.30 1 1008.2